Location: Oberwangen
(47.4286°N, 8.9679°E)
Time: 09:19:25
(UTC+00:00)

Cosmos 1725 Rocket - Pass Details

Date: 20 June 2021
Orbit: 962 x 990 km, 82.9° (Epoch: 04 August)

Event Time Altitude Azimuth Distance (km) Brightness Sun altitude
Rises 20:26:09 0° 354° (N) 3,660 8.0 -8.4°
Reaches altitude 10° 20:28:44 10° 358° (N) 2,710 7.2 -8.7°
Maximum altitude 20:34:48 55° 76° (ENE) 1,144 4.3 -9.4°
Enters shadow 20:40:30 12° 153° (SSE) 2,571 5.6 -10.0°
